[[{"header":{"parameterUnit":"m.s-1","parameterCategory":2,"la1":30.2991,"la2":30.254,"lo1":-89.0895,"lo2":-89.0444,"dy":0.0017,"dx":0.0017,"nx":28,"ny":28,"refTime":"2025-06-07T03:00:00:Z","depth":"0","parameterNumber":2,"parameterNumberName":"U-component_of_CURRENTS"},"data":[0,0,0,0,0,0,0,0,0,0,0,0,0,0,0,0,0,0,0,0,0,0,0,0,0,0,0,0,0,0,0,0,0,0,0,0,0,0,0,0,0,0,0,0,0,0,0,0,0,0,0,0,0,0,0,0,0,0,0.2018,0.2018,0,0.2035,0.2035,0.2036,0.1959,0.1957,0.1955,0.1953,0.2186,0.2194,0.2202,0,0,0,0,0,0,0,0,0,0,0,0,0,0.1735,0.1741,0.2018,0.2018,0.2018,0.2035,0.2035,0.2036,0.1959,0.1957,0.1954,0.1952,0.2183,0.2193,0.2202,0,0,0,0,0,0,0,0,0,0,0,0,0,0.1814,0.1743,0.2017,0.1984,0.1982,0.2035,0.2035,0.2036,0.196,0.1957,0.1954,0.1951,0.218,0.2192,0.2204,0.234,0,0,0.2241,0.2246,0,0,0,0,0,0,0,0,0.181,0.1824,0.1989,0.1987,0.1984,0.1994,0.2021,0.2149,0.1961,0.1966,0.1953,0.1949,0.2146,0.216,0.2164,0.235,0.236,0.2242,0.2249,0.2254,0.2258,0,0,0,0,0,0,0,0.1804,0.1822,0.2022,0.1989,0.1987,0.1906,0.1915,0.2043,0.2075,0.1965,0.196,0.1967,0.2145,0.2152,0.217,0.2364,0.2241,0.2252,0.226,0.2264,0.2657,0.266,0,0,0,0,0,0,0.1822,0.1819,0.2022,0.2023,0.189,0.1914,0.1924,0.1992,0.2068,0.2076,0.1969,0.1963,0.2133,0.2155,0.2178,0.2307,0.2254,0.2266,0.2273,0.2654,0.2657,0.2661,0,0,0,0,0,0,0.1817,0.1842,0.2021,0.1918,0.1935,0.1924,0.1999,0.1994,0.1986,0.207,0.208,0.1964,0.2131,0.2161,0.2283,0.2317,0.2271,0.2282,0.265,0.2655,0.2659,0.2592,0,0,0,0,0,0,0.181,0.1842,0.1895,0.1922,0.1942,0.2021,0.2002,0.1996,0.1997,0.1988,0.2072,0.2089,0.2131,0.2265,0.2295,0.2333,0.2292,0.2646,0.2652,0.2658,0.259,0.2594,0.2597,0,0,0,0,0,0.18,0.189,0.19,0.1923,0.202,0.2021,0.2022,0.1999,0.1999,0.1984,0.2062,0.2085,0.2323,0.2278,0.2313,0.2355,0.2643,0.265,0.2657,0.2589,0.2593,0.2597,0,0,0,0,0,0,0.1787,0.1893,0.1902,0.2019,0.2002,0.2007,0.2017,0.2007,0.2054,0.2065,0.2136,0.2162,0.2279,0.2347,0.2294,0.249,0.2486,0.25,0.2422,0.2428,0.2431,0.2406,0.2302,0,0,0,0,0,0.1818,0.1905,0.1948,0.2017,0.2032,0.2027,0.2031,0.201,0.2054,0.2065,0.2125,0.2226,0.2344,0.2402,0.2501,0.2626,0.2612,0.2678,0.2681,0.2682,0.2691,0.2692,0.2693,0.2684,0.2684,0.2684,0,0,0.1823,0.1891,0.1937,0.2016,0.2019,0.2041,0.202,0.2023,0.2044,0.2101,0.2169,0.2246,0.2383,0.2494,0.2554,0.2548,0.2671,0.2691,0.2691,0.2699,0.2699,0.2699,0.2698,0.2689,0.2688,0.2687,0,0,0.1863,0.1946,0.2025,0.2019,0.2035,0.2041,0.2044,0.2055,0.2066,0.2145,0.22,0.2288,0.2454,0.2531,0.2609,0.271,0.2689,0.2751,0.2749,0.2749,0.2747,0.2746,0.2671,0.2664,0.275,0.275,0.275,0,0.1873,0.1983,0.2023,0.2064,0.2066,0.2049,0.2077,0.21,0.2135,0.2184,0.216,0.2397,0.2475,0.2649,0.2654,0.2714,0.2679,0.2708,0.2743,0.2743,0.2742,0.2667,0.266,0.2748,0.2748,0.2748,0.2748,0,0.1945,0.2014,0.2044,0.2114,0.211,0.2121,0.2148,0.2165,0.2188,0.222,0.2358,0.2448,0.2581,0.2619,0.2667,0.2743,0.2702,0.2735,0.2707,0.2737,0.2658,0.2651,0.2744,0.2745,0.2746,0.2746,0,0,0.2035,0.2102,0.2107,0.2107,0.2137,0.2124,0.2194,0.2257,0.23,0.2353,0.2435,0.2596,0.2615,0.2705,0.2767,0.2758,0.2686,0.2729,0.273,0.2607,0.2613,0.2495,0.2476,0.2704,0.2704,0.2705,0.2534,0,0.2081,0.2158,0.2185,0.2193,0.222,0.2215,0.2258,0.2297,0.2354,0.2419,0.2538,0.2631,0.2666,0.2699,0.2715,0.2711,0.2677,0.2726,0.2647,0.2644,0.2496,0.2469,0.2574,0.2425,0.2527,0.2526,0.2525,0,0.2145,0.2187,0.2234,0.2223,0.2235,0.2231,0.227,0.2301,0.2416,0.2459,0.2582,0.2658,0.273,0.2714,0.271,0.2729,0.2667,0.2631,0.2625,0.254,0.2516,0.2432,0.2409,0.2415,0.2515,0.2516,0.2516,0,0.2143,0.2201,0.2233,0.2225,0.2238,0.2247,0.2247,0.2322,0.234,0.2471,0.2488,0.2636,0.2655,0.265,0.2599,0.2637,0.2519,0.2575,0.2412,0.24,0.2492,0.2487,0.2436,0.2536,0.2536,0.2537,0.2537,0,0.2171,0.2178,0.2221,0.2214,0.2228,0.2215,0.2223,0.2273,0.2313,0.233,0.2487,0.2517,0.2625,0.2603,0.2569,0.244,0.2497,0.2388,0.2356,0.2466,0.2462,0.2476,0.242,0.253,0.2532,0.2533,0.2534,0,0.2149,0.218,0.2206,0.223,0.2222,0.2216,0.2163,0.2161,0.22,0.2223,0.2246,0.2383,0.2378,0.2431,0.2392,0.2353,0.2204,0.2202,0.2278,0.2258,0.2132,0.2068,0.1764,0.1729,0.2013,0.2009,0.2006,0,0.2148,0.2167,0.221,0.2207,0.2212,0.2179,0.2145,0.2127,0.21,0.2123,0.2121,0.2167,0.2216,0.2123,0.2149,0.2078,0.2034,0.202,0.214,0.2105,0.2013,0.1873,0.1859,0.2218,0.2216,0.2215,0.2215,0,0.2155,0.2182,0.2207,0.2199,0.2164,0.211,0.2044,0.2001,0.1961,0.197,0.1947,0.1982,0.2016,0.2071,0.1999,0.1965,0.1966,0.1988,0.1992,0.2174,0.1986,0.1947,0.2286,0.2206,0.2206,0.2207,0.2208,0.2208,0.2158,0.2193,0.2208,0.2157,0.2124,0.202,0.1933,0.1874,0.1801,0.1775,0.1808,0.1852,0.2006,0.2009,0.1928,0.1948,0.1837,0.197,0.1887,0.174,0.1731,0.197,0.1831,0.183,0.1829,0.1828,0.1827,0,0.215,0.2147,0.2139,0.2061,0.1949,0.1946,0.1832,0.1742,0.1647,0.1712,0.1695,0.1844,0.1926,0.2007,0.2087,0.1956,0.1888,0.1854,0.1815,0.1808,0.2117,0.2165,0.2047,0.2047,0.2047,0.2047,0.2047,0.2047,0.2148,0.2124,0.2086,0.1867,0.1789,0.1639,0.1559,0.1514,0.1538,0.158,0.1665,0.1746,0.1925,0.201,0.2009,0.1951,0.1807,0.1644,0.1521,0.1928,0.1939,0.1949,0.1992,0.1838,0.1837,0.1336,0.1332,0.1329]},{"header":{"parameterUnit":"m.s-1","parameterCategory":2,"la1":30.2991,"la2":30.254,"lo1":-89.0895,"lo2":-89.0444,"dy":0.0017,"dx":0.0017,"nx":28,"ny":28,"refTime":"2025-06-07T03:00:00:Z","depth":"0","parameterNumber":3,"parameterNumberName":"V-component_of_CURRENTS"},"data":[0,0,0,0,0,0,0,0,0,0,0,0,0,0,0,0,0,0,0,0,0,0,0,0,0,0,0,0,0,0,0,0,0,0,0,0,0,0,0,0,0,0,0,0,0,0,0,0,0,0,0,0,0,0,0,0,0,0,0.0301,0.0303,0,0.0464,0.0467,0.0469,0.0498,0.0496,0.0494,0.0492,0.0737,0.0745,0.0753,0,0,0,0,0,0,0,0,0,0,0,0,0,0.0108,0.0112,0.0301,0.0303,0.0305,0.0464,0.0467,0.0469,0.0498,0.0496,0.0494,0.0492,0.0735,0.0744,0.0754,0,0,0,0,0,0,0,0,0,0,0,0,0,0.0228,0.0113,0.0301,0.0335,0.0339,0.0464,0.0467,0.047,0.0498,0.0496,0.0493,0.0491,0.0731,0.0743,0.0755,0.0884,0,0,0.0793,0.0798,0,0,0,0,0,0,0,0,0.0221,0.0235,0.0328,0.0332,0.0337,0.0454,0.0488,0.0611,0.0499,0.0443,0.0492,0.0489,0.0649,0.0668,0.071,0.0896,0.0906,0.0794,0.0801,0.0807,0.081,0,0,0,0,0,0,0,0.0213,0.0229,0.037,0.033,0.0336,0.0373,0.0387,0.0512,0.0564,0.0447,0.0449,0.0461,0.0653,0.0698,0.0716,0.091,0.0794,0.0805,0.0812,0.0817,0.1197,0.1199,0,0,0,0,0,0,0.0182,0.0221,0.0365,0.0375,0.0266,0.0378,0.0394,0.0423,0.0561,0.0577,0.0463,0.0461,0.0678,0.0702,0.0725,0.0872,0.0807,0.0818,0.0825,0.1194,0.1197,0.12,0,0,0,0,0,0,0.0178,0.0194,0.0359,0.0297,0.0319,0.0383,0.0417,0.0427,0.0468,0.0571,0.0589,0.0489,0.0677,0.0708,0.0843,0.0881,0.0824,0.0835,0.1191,0.1195,0.1199,0.1175,0,0,0,0,0,0,0.0172,0.0192,0.022,0.0295,0.0322,0.0455,0.0419,0.0432,0.0477,0.0477,0.0601,0.0621,0.0677,0.0824,0.0855,0.0897,0.0844,0.1187,0.1193,0.1198,0.1172,0.1178,0.1183,0,0,0,0,0,0.0165,0.0214,0.0221,0.0239,0.0353,0.0457,0.0477,0.0514,0.0481,0.0533,0.0596,0.0617,0.0877,0.0837,0.0873,0.0919,0.1185,0.1191,0.1197,0.117,0.1177,0.1182,0,0,0,0,0,0,0.0141,0.0224,0.0232,0.0303,0.038,0.046,0.0514,0.052,0.0612,0.0603,0.0672,0.0702,0.0833,0.089,0.0844,0.1044,0.1028,0.1042,0.0996,0.1003,0.1008,0.0995,0.0855,0,0,0,0,0,0.0149,0.0207,0.0288,0.0343,0.0387,0.0447,0.0493,0.0514,0.0591,0.0625,0.0707,0.0794,0.0893,0.0952,0.1062,0.1188,0.1175,0.1236,0.1241,0.1245,0.126,0.1257,0.1261,0.1221,0.122,0.122,0,0,0.0143,0.0203,0.0229,0.0342,0.0404,0.0499,0.0471,0.0547,0.0616,0.0645,0.0776,0.0833,0.0934,0.1062,0.1125,0.111,0.1247,0.1252,0.1254,0.1268,0.1263,0.1266,0.1269,0.1225,0.1224,0.1223,0,0,0.0188,0.023,0.0308,0.0381,0.0479,0.0533,0.0551,0.0646,0.0684,0.0812,0.0831,0.0901,0.1084,0.1137,0.1189,0.1297,0.1278,0.1332,0.1347,0.1343,0.1345,0.1346,0.1301,0.1299,0.1326,0.1326,0.1326,0,0.0188,0.0294,0.0346,0.0448,0.0513,0.0548,0.0647,0.071,0.0828,0.0867,0.0859,0.1053,0.112,0.1238,0.1258,0.1307,0.1283,0.1305,0.1343,0.1344,0.1346,0.13,0.1298,0.1326,0.1326,0.1326,0.1326,0,0.0296,0.0386,0.0442,0.0583,0.0661,0.0751,0.0835,0.091,0.0941,0.0983,0.11,0.117,0.1269,0.1292,0.1313,0.137,0.1338,0.1344,0.1308,0.1347,0.1298,0.1296,0.1325,0.1325,0.1325,0.1326,0,0,0.0298,0.0485,0.0507,0.0586,0.0736,0.0808,0.0931,0.1053,0.1098,0.1186,0.1253,0.1371,0.1348,0.1405,0.1416,0.1403,0.1367,0.1371,0.137,0.1292,0.1318,0.1271,0.1263,0.1362,0.1363,0.1363,0.1263,0,0.0383,0.057,0.0647,0.0814,0.0921,0.0991,0.11,0.1188,0.1244,0.1318,0.1347,0.1423,0.141,0.1423,0.1416,0.1393,0.1367,0.1392,0.1324,0.1322,0.1247,0.1262,0.1311,0.1225,0.1261,0.126,0.126,0,0.0485,0.0596,0.0766,0.0932,0.0983,0.1071,0.1209,0.13,0.139,0.1422,0.1469,0.1489,0.1512,0.1475,0.1439,0.1448,0.139,0.1349,0.1344,0.1313,0.1272,0.1205,0.1219,0.1252,0.1256,0.1257,0.1257,0,0.0477,0.0686,0.0814,0.0874,0.106,0.1129,0.1213,0.1319,0.1368,0.1455,0.1469,0.1526,0.1519,0.1488,0.1413,0.142,0.1334,0.1336,0.124,0.1233,0.1274,0.1271,0.1291,0.1305,0.1305,0.1305,0.1305,0,0.0559,0.0665,0.0808,0.0877,0.1005,0.1116,0.1212,0.1306,0.1377,0.1409,0.1485,0.1499,0.1515,0.1478,0.1419,0.1312,0.1339,0.1245,0.1215,0.1265,0.1263,0.1293,0.1269,0.1301,0.1302,0.1303,0.1303,0,0.0572,0.0665,0.0813,0.0975,0.101,0.1092,0.1197,0.1248,0.1315,0.1352,0.1373,0.1452,0.1427,0.1416,0.1351,0.1293,0.1226,0.1168,0.1205,0.1183,0.1136,0.1108,0.1039,0.1148,0.1057,0.1055,0.1054,0,0.0617,0.0686,0.084,0.0898,0.0975,0.107,0.1122,0.1209,0.1234,0.1303,0.1307,0.1335,0.1347,0.1252,0.1219,0.1136,0.1163,0.1084,0.1126,0.1141,0.109,0.1071,0.1172,0.1153,0.1153,0.1152,0.1152,0,0.069,0.0724,0.0827,0.0914,0.0978,0.1044,0.1106,0.1111,0.1179,0.1203,0.122,0.1239,0.122,0.1215,0.1141,0.1082,0.114,0.107,0.1104,0.1181,0.1148,0.1237,0.1177,0.1149,0.1149,0.1149,0.1149,0.115,0.072,0.0785,0.0868,0.0943,0.0999,0.1017,0.1033,0.1074,0.1089,0.1151,0.1149,0.1242,0.1273,0.1219,0.111,0.1081,0.1086,0.1089,0.1051,0.1029,0.1158,0.1061,0.0993,0.0992,0.0992,0.0991,0.0991,0,0.0764,0.0808,0.0889,0.0952,0.0965,0.0998,0.1018,0.1028,0.1027,0.1178,0.1203,0.1403,0.1323,0.1313,0.123,0.1124,0.1157,0.1086,0.1127,0.1239,0.1175,0.121,0.1166,0.1166,0.1166,0.1166,0.1166,0.1166,0.0787,0.0851,0.0869,0.0881,0.0903,0.09,0.0894,0.0947,0.107,0.1302,0.1532,0.1704,0.1849,0.1372,0.1216,0.1172,0.1244,0.11,0.1184,0.1169,0.117,0.1171,0.1205,0.1161,0.1161,0.1365,0.1366,0.1366]}],[{"header":{"parameterUnit":"m.s-1","parameterCategory":2,"la1":30.2991,"la2":30.254,"lo1":-89.0895,"lo2":-89.0444,"dy":0.0017,"dx":0.0017,"nx":28,"ny":28,"refTime":"2025-06-07T03:00:00:Z","depth":"2","parameterNumber":2,"parameterNumberName":"U-component_of_CURRENTS"},"data":[0,0,0,0,0,0,0,0,0,0,0,0,0,0,0,0,0,0,0,0,0,0,0,0,0,0,0,0,0,0,0,0,0,0,0,0,0,0,0,0,0,0,0,0,0,0,0,0,0,0,0,0,0,0,0,0,0,0,0.1752,0.1756,0,0.1928,0.1927,0.1927,0.1848,0.1847,0.1845,0.1843,0.2077,0.2084,0.2092,0,0,0,0,0,0,0,0,0,0,0,0,0,0.1468,0.147,0.1752,0.1757,0.1762,0.1928,0.1927,0.1927,0.1849,0.1847,0.1845,0.1843,0.2074,0.2083,0.2092,0,0,0,0,0,0,0,0,0,0,0,0,0,0.1583,0.1471,0.1751,0.1764,0.177,0.1928,0.1927,0.1927,0.1849,0.1846,0.1844,0.1842,0.2071,0.2082,0.2094,0.2214,0,0,0.2129,0.2134,0,0,0,0,0,0,0,0,0.1577,0.159,0.1758,0.1764,0.1771,0.189,0.1914,0.2036,0.185,0.1787,0.1843,0.1841,0.2041,0.2055,0.205,0.2225,0.2235,0.213,0.2137,0.2142,0.2145,0,0,0,0,0,0,0,0.1568,0.1583,0.1791,0.1764,0.1772,0.1805,0.1814,0.1935,0.1904,0.1793,0.1795,0.1862,0.204,0.2038,0.2056,0.2238,0.213,0.214,0.2147,0.2152,0.2538,0.2541,0,0,0,0,0,0,0.1604,0.1575,0.1786,0.18,0.1699,0.1814,0.1823,0.1829,0.1901,0.1918,0.1865,0.1859,0.202,0.2042,0.2064,0.2198,0.2142,0.2153,0.216,0.2535,0.2539,0.2543,0,0,0,0,0,0,0.1596,0.1618,0.178,0.1718,0.1745,0.1823,0.1831,0.1835,0.1837,0.1961,0.1971,0.1867,0.2019,0.2048,0.218,0.2208,0.2158,0.2169,0.2531,0.2536,0.2541,0.2478,0,0,0,0,0,0,0.1585,0.1612,0.1593,0.1719,0.1751,0.1825,0.1837,0.1841,0.1898,0.189,0.1969,0.1985,0.2019,0.2163,0.2192,0.2223,0.2178,0.2527,0.2533,0.2539,0.2475,0.248,0.2484,0,0,0,0,0,0.1573,0.1597,0.1589,0.1616,0.1731,0.1827,0.1839,0.1871,0.1901,0.1867,0.1968,0.1983,0.2222,0.2176,0.2209,0.2243,0.2524,0.2531,0.2539,0.2474,0.2479,0.2483,0,0,0,0,0,0,0.1481,0.1598,0.1591,0.1646,0.1703,0.1823,0.1842,0.1887,0.1937,0.1961,0.204,0.2065,0.2176,0.2249,0.2195,0.2379,0.2373,0.2387,0.2312,0.2318,0.2322,0.2298,0.2187,0,0,0,0,0,0.1455,0.1503,0.1589,0.1645,0.1658,0.1746,0.1792,0.1832,0.1932,0.1946,0.2015,0.2127,0.2238,0.2305,0.2386,0.252,0.2496,0.2565,0.2569,0.2571,0.258,0.2581,0.2583,0.2567,0.2567,0.2567,0,0,0.147,0.1534,0.157,0.1631,0.1676,0.1732,0.1755,0.1846,0.1919,0.1983,0.2073,0.2137,0.2275,0.238,0.244,0.2445,0.2552,0.2581,0.2581,0.2589,0.2589,0.2589,0.259,0.2572,0.2571,0.257,0,0,0.1551,0.1531,0.1585,0.1614,0.1706,0.1749,0.1777,0.1872,0.1897,0.2029,0.2086,0.217,0.2347,0.2413,0.2492,0.2594,0.2558,0.263,0.2649,0.265,0.2649,0.2648,0.2539,0.2529,0.2648,0.2648,0.2647,0,0.1515,0.162,0.1618,0.1666,0.1718,0.1758,0.1822,0.1873,0.2011,0.2064,0.2053,0.2291,0.2364,0.2533,0.254,0.2596,0.2554,0.2605,0.2645,0.2645,0.2645,0.2534,0.2524,0.2645,0.2646,0.2646,0.2646,0,0.1681,0.1701,0.1741,0.1793,0.1813,0.1895,0.1954,0.1985,0.2044,0.2119,0.225,0.2335,0.2471,0.2503,0.2559,0.2629,0.2576,0.2622,0.2606,0.2641,0.2523,0.2513,0.2642,0.2643,0.2644,0.2644,0,0,0.1733,0.1821,0.1832,0.1821,0.1889,0.1918,0.2016,0.21,0.2164,0.2256,0.2345,0.25,0.2512,0.2602,0.2657,0.2658,0.2573,0.2636,0.2637,0.2478,0.2481,0.2364,0.2341,0.2615,0.2615,0.2615,0.2364,0,0.1833,0.1933,0.1971,0.2028,0.2042,0.2055,0.2117,0.2196,0.2261,0.2328,0.2439,0.2528,0.2571,0.2601,0.2626,0.2603,0.256,0.2631,0.2517,0.2512,0.2365,0.2333,0.2263,0.203,0.2355,0.2353,0.2352,0,0.1963,0.2011,0.2088,0.2073,0.2076,0.2111,0.2153,0.2218,0.233,0.2376,0.2493,0.2559,0.2628,0.262,0.2599,0.2638,0.2553,0.2505,0.2496,0.2412,0.2382,0.2074,0.2,0.2336,0.2337,0.2338,0.2339,0,0.1987,0.2053,0.2105,0.2119,0.2143,0.2156,0.2162,0.2242,0.2262,0.2384,0.2401,0.254,0.2554,0.254,0.2482,0.2523,0.2379,0.243,0.2233,0.2219,0.2154,0.2135,0.2364,0.2364,0.2365,0.2366,0.2366,0,0.205,0.2069,0.2105,0.2129,0.2149,0.2137,0.215,0.2202,0.2235,0.2248,0.2403,0.2422,0.2529,0.2496,0.2445,0.2289,0.2353,0.2203,0.2163,0.2123,0.2106,0.2407,0.2415,0.2356,0.2358,0.236,0.2362,0,0.2044,0.2086,0.2119,0.2157,0.2152,0.215,0.2093,0.2092,0.2133,0.2146,0.2169,0.229,0.2229,0.2266,0.2193,0.2192,0.2079,0.1996,0.1887,0.184,0.191,0.1919,0.1746,0.174,0.1735,0.1731,0.1727,0,0.2056,0.2082,0.2135,0.2132,0.2141,0.2112,0.2082,0.2064,0.2033,0.2046,0.2036,0.2023,0.2046,0.1907,0.1885,0.1758,0.1821,0.1578,0.1679,0.1875,0.1854,0.1871,0.1886,0.152,0.1515,0.1511,0.1508,0,0.2078,0.2101,0.2133,0.2132,0.2098,0.2042,0.1977,0.1934,0.1895,0.1898,0.1861,0.1881,0.1802,0.171,0.1578,0.15,0.1619,0.1487,0.173,0.1707,0.1649,0.1633,0.1658,0.1472,0.1476,0.1478,0.148,0.1482,0.2072,0.2112,0.2137,0.2082,0.2052,0.1955,0.1866,0.1777,0.1698,0.1601,0.1664,0.16,0.1625,0.1397,0.1304,0.1216,0.1325,0.1276,0.1295,0.1316,0.1355,0.1295,0.105,0.1051,0.1052,0.1053,0.1053,0,0.205,0.2063,0.2063,0.1987,0.1873,0.1879,0.1768,0.1608,0.1469,0.1426,0.1353,0.1214,0.1174,0.1127,0.1007,0.1003,0.1071,0.0893,0.1013,0.1048,0.1079,0.1114,0.0739,0.0738,0.0737,0.0736,0,0,0.2051,0.2031,0.201,0.179,0.1717,0.1526,0.1446,0.1265,0.117,0.1006,0.0948,0.101,0.1114,0.0909,0.0891,0.0799,0.0909,0.0747,0.1004,0.1181,0.121,0.1305,0.1396,0,0,0,0,0]},{"header":{"parameterUnit":"m.s-1","parameterCategory":2,"la1":30.2991,"la2":30.254,"lo1":-89.0895,"lo2":-89.0444,"dy":0.0017,"dx":0.0017,"nx":28,"ny":28,"refTime":"2025-06-07T03:00:00:Z","depth":"2","parameterNumber":3,"parameterNumberName":"V-component_of_CURRENTS"},"data":[0,0,0,0,0,0,0,0,0,0,0,0,0,0,0,0,0,0,0,0,0,0,0,0,0,0,0,0,0,0,0,0,0,0,0,0,0,0,0,0,0,0,0,0,0,0,0,0,0,0,0,0,0,0,0,0,0,0,0.01,0.0104,0,0.0371,0.0373,0.0375,0.0397,0.0396,0.0394,0.0392,0.0607,0.0614,0.0622,0,0,0,0,0,0,0,0,0,0,0,0,0,-0.009,-0.009,0.01,0.0105,0.0109,0.037,0.0373,0.0375,0.0398,0.0396,0.0394,0.0392,0.0605,0.0613,0.0622,0,0,0,0,0,0,0,0,0,0,0,0,0,0.0054,-0.009,0.0099,0.0162,0.0171,0.037,0.0373,0.0376,0.0398,0.0396,0.0393,0.0391,0.0602,0.0613,0.0623,0.0741,0,0,0.0657,0.0661,0,0,0,0,0,0,0,0,0.0045,0.0059,0.0148,0.0158,0.0169,0.036,0.0386,0.05,0.0399,0.0298,0.0392,0.0389,0.053,0.0547,0.0585,0.0751,0.076,0.0658,0.0664,0.0669,0.0672,0,0,0,0,0,0,0,0.0035,0.005,0.0193,0.0154,0.0166,0.0283,0.0296,0.0408,0.0413,0.0306,0.0312,0.0364,0.0533,0.0574,0.059,0.0764,0.0657,0.0667,0.0674,0.0678,0.1038,0.104,0,0,0,0,0,0,0.0015,0.0038,0.0185,0.0203,0.0115,0.0288,0.0303,0.029,0.0413,0.0434,0.0366,0.0365,0.0557,0.0577,0.0598,0.0739,0.0669,0.0679,0.0685,0.1035,0.1038,0.1042,0,0,0,0,0,0,0.0009,0.0023,0.0174,0.0142,0.0171,0.0293,0.028,0.0297,0.0343,0.0462,0.0478,0.0396,0.0555,0.0582,0.0716,0.0747,0.0684,0.0694,0.1031,0.1036,0.104,0.1026,0,0,0,0,0,0,0.0001,0.0017,-0.0012,0.0138,0.0172,0.0304,0.0284,0.0304,0.0386,0.0386,0.0495,0.0511,0.0556,0.07,0.0727,0.0761,0.0703,0.1027,0.1033,0.1038,0.1022,0.1029,0.1035,0,0,0,0,0,-0.0008,-0.0024,-0.0017,0.0003,0.0129,0.0308,0.0336,0.0408,0.039,0.0431,0.0503,0.0508,0.0753,0.0713,0.0744,0.0781,0.1025,0.1032,0.1038,0.102,0.1028,0.1035,0,0,0,0,0,0,-0.0109,-0.0016,-0.0007,0.0004,0.015,0.0316,0.0374,0.0418,0.0508,0.0505,0.0569,0.0596,0.0708,0.0769,0.0722,0.0903,0.0883,0.0896,0.0858,0.0867,0.0873,0.0863,0.0712,0,0,0,0,0,-0.0146,-0.0134,0.0001,0.0033,0.0092,0.0229,0.0303,0.0369,0.0486,0.052,0.0598,0.0683,0.0766,0.0832,0.0915,0.1048,0.1027,0.1088,0.1094,0.1099,0.1115,0.1111,0.1117,0.1064,0.1064,0.1064,0,0,-0.015,-0.0105,-0.0088,0.0016,0.0125,0.0261,0.0264,0.0404,0.0509,0.0536,0.0674,0.071,0.0803,0.0921,0.0979,0.0978,0.1097,0.1107,0.111,0.1124,0.1119,0.1123,0.1127,0.1068,0.1067,0.1067,0,0,-0.0093,-0.0131,-0.0072,0.0039,0.0205,0.029,0.033,0.0499,0.0544,0.0706,0.0713,0.0773,0.0953,0.0993,0.1043,0.115,0.1115,0.1176,0.1223,0.1219,0.1221,0.1224,0.1154,0.1151,0.1196,0.1196,0.1196,0,-0.0117,-0.0032,-0.0007,0.0109,0.0215,0.0303,0.0445,0.0528,0.0718,0.0756,0.0756,0.093,0.0986,0.1093,0.1117,0.1159,0.1131,0.1175,0.122,0.1222,0.1225,0.1154,0.115,0.1196,0.1196,0.1196,0.1196,0,0.0047,0.0099,0.0163,0.0305,0.0408,0.0554,0.0678,0.076,0.0812,0.0883,0.0983,0.1045,0.1138,0.1154,0.118,0.1231,0.1191,0.1202,0.1181,0.1228,0.1151,0.1147,0.1196,0.1196,0.1196,0.1196,0,0,0.0038,0.0225,0.0253,0.0333,0.0518,0.0627,0.0769,0.0915,0.097,0.1083,0.1149,0.1255,0.1226,0.1279,0.1283,0.1286,0.1246,0.1259,0.1259,0.1155,0.1184,0.1144,0.1134,0.1257,0.1257,0.1258,0.1102,0,0.017,0.0374,0.0444,0.0655,0.0769,0.0854,0.0973,0.1089,0.1146,0.1215,0.1234,0.1298,0.1294,0.1304,0.1312,0.127,0.1245,0.1284,0.1188,0.1184,0.1114,0.1133,0.1038,0.0893,0.1098,0.1098,0.1097,0,0.0324,0.0428,0.0633,0.0787,0.0843,0.0962,0.1097,0.1212,0.1291,0.1323,0.1363,0.1367,0.1393,0.1364,0.1323,0.1346,0.1272,0.1222,0.1215,0.1189,0.114,0.0896,0.0877,0.109,0.109,0.1091,0.1091,0,0.0334,0.0552,0.0694,0.0772,0.0966,0.1037,0.1125,0.1231,0.1278,0.1352,0.1364,0.1413,0.1404,0.1368,0.1297,0.1303,0.1209,0.1201,0.1083,0.1075,0.0985,0.097,0.1149,0.1149,0.1149,0.115,0.115,0,0.0443,0.0559,0.0696,0.0788,0.0919,0.1034,0.1133,0.1225,0.1287,0.1315,0.1384,0.1389,0.1405,0.1365,0.1298,0.1182,0.1211,0.1086,0.105,0.0975,0.0962,0.1149,0.1151,0.1144,0.1145,0.1146,0.1147,0,0.0471,0.0571,0.0724,0.0894,0.0932,0.1018,0.1121,0.1171,0.1238,0.1265,0.1283,0.1348,0.1294,0.1275,0.119,0.1159,0.1065,0.1006,0.0892,0.0848,0.0915,0.0919,0.0847,0.0845,0.0843,0.0841,0.084,0,0.0526,0.0601,0.076,0.0818,0.0897,0.0996,0.1052,0.1138,0.1158,0.1221,0.1218,0.1207,0.12,0.1086,0.102,0.0901,0.0936,0.0744,0.0762,0.0922,0.0893,0.09,0.0906,0.0596,0.0593,0.059,0.0588,0,0.061,0.0641,0.0747,0.084,0.0906,0.0972,0.1035,0.1038,0.1108,0.1128,0.1133,0.1137,0.1045,0.0923,0.0814,0.0731,0.0775,0.0684,0.0882,0.0716,0.0681,0.0654,0.0669,0.0564,0.0566,0.0568,0.0569,0.057,0.0634,0.0702,0.079,0.0864,0.0924,0.0948,0.0964,0.0985,0.0996,0.0997,0.1014,0.0988,0.092,0.0737,0.0633,0.054,0.0578,0.0517,0.0527,0.0539,0.0567,0.0534,0.0389,0.039,0.0391,0.0392,0.0393,0,0.0665,0.0721,0.0809,0.0876,0.0889,0.093,0.0952,0.0917,0.0888,0.0911,0.0886,0.0764,0.0651,0.0577,0.0403,0.0345,0.0368,0.03,0.0319,0.0339,0.0359,0.0382,0.0152,0.0152,0.0152,0.0152,0,0,0.0691,0.0758,0.0791,0.0806,0.0834,0.0807,0.0802,0.0767,0.0768,0.0732,0.0721,0.0724,0.0663,0.0486,0.0354,0.0244,0.0327,0.0228,0.0412,0.0463,0.0485,0.0452,0.0505,0,0,0,0,0]}],[{"header":{"parameterUnit":"m.s-1","parameterCategory":2,"la1":30.2991,"la2":30.254,"lo1":-89.0895,"lo2":-89.0444,"dy":0.0017,"dx":0.0017,"nx":28,"ny":28,"refTime":"2025-06-07T03:00:00:Z","depth":"4","parameterNumber":2,"parameterNumberName":"U-component_of_CURRENTS"},"data":[0,0,0,0,0,0,0,0,0,0,0,0,0,0,0,0,0,0,0,0,0,0,0,0,0,0,0,0,0,0,0,0,0,0,0,0,0,0,0,0,0,0,0,0,0,0,0,0,0,0,0,0,0,0,0,0,0,0,-0.0663,-0.0664,0,-0.0779,-0.0781,-0.0783,-0.0819,-0.0818,-0.0817,-0.0816,-0.0731,-0.073,-0.0729,0,0,0,0,0,0,0,0,0,0,0,0,0,-0.0617,-0.0618,-0.0663,-0.0664,-0.0664,-0.0779,-0.0781,-0.0783,-0.082,-0.0818,-0.0817,-0.0815,-0.0732,-0.073,-0.0729,0,0,0,0,0,0,0,0,0,0,0,0,0,-0.0682,-0.0618,-0.0663,-0.0691,-0.0694,-0.0778,-0.0781,-0.0784,-0.082,-0.0818,-0.0816,-0.0815,-0.0732,-0.073,-0.0729,-0.0756,0,0,-0.0724,-0.0723,0,0,0,0,0,0,0,0,-0.0679,-0.0685,-0.0686,-0.0689,-0.0692,-0.0776,-0.0734,-0.0762,-0.082,-0.078,-0.0816,-0.0814,-0.0724,-0.0723,-0.0763,-0.0752,-0.0748,-0.0724,-0.0723,-0.0722,-0.0721,0,0,0,0,0,0,0,-0.0674,-0.0681,-0.0717,-0.0687,-0.0691,-0.0747,-0.0753,-0.0742,-0.0763,-0.0783,-0.0784,-0.0786,-0.0725,-0.0765,-0.076,-0.0747,-0.0724,-0.0722,-0.0721,-0.072,-0.0709,-0.0709,0,0,0,0,0,0,-0.0639,-0.0676,-0.0713,-0.0719,-0.0672,-0.0748,-0.0756,-0.0757,-0.0768,-0.0767,-0.0788,-0.0787,-0.0768,-0.0762,-0.0757,-0.0729,-0.0722,-0.072,-0.0719,-0.0708,-0.0709,-0.071,0,0,0,0,0,0,-0.0638,-0.0641,-0.0708,-0.0695,-0.0706,-0.0749,-0.0752,-0.0761,-0.0829,-0.0772,-0.0768,-0.0847,-0.0766,-0.0759,-0.0768,-0.0727,-0.072,-0.0718,-0.0707,-0.0708,-0.0709,-0.071,0,0,0,0,0,0,-0.0636,-0.064,-0.0668,-0.0692,-0.0705,-0.0758,-0.0753,-0.0764,-0.0826,-0.0828,-0.0821,-0.081,-0.0764,-0.0771,-0.0767,-0.0725,-0.0717,-0.0706,-0.0708,-0.0709,-0.0709,-0.071,-0.0712,0,0,0,0,0,-0.0634,-0.0654,-0.0668,-0.0674,-0.0728,-0.0758,-0.0772,-0.0802,-0.0831,-0.086,-0.0864,-0.0812,-0.0774,-0.0773,-0.0766,-0.0722,-0.0706,-0.0707,-0.0709,-0.0708,-0.071,-0.0712,0,0,0,0,0,0,-0.0647,-0.066,-0.0675,-0.07,-0.073,-0.0761,-0.0806,-0.0834,-0.0875,-0.087,-0.0845,-0.0835,-0.0814,-0.0796,-0.0796,-0.0726,-0.0722,-0.0722,-0.0723,-0.0725,-0.0726,-0.0751,-0.0715,0,0,0,0,0,-0.0662,-0.0688,-0.0701,-0.073,-0.0749,-0.0797,-0.083,-0.0832,-0.0852,-0.0874,-0.0796,-0.0778,-0.0817,-0.0798,-0.0771,-0.0759,-0.0755,-0.0722,-0.0724,-0.0725,-0.0744,-0.0734,-0.0736,-0.0715,-0.0714,-0.0714,0,0,-0.0683,-0.0689,-0.0711,-0.0737,-0.0776,-0.0791,-0.0815,-0.0847,-0.0857,-0.085,-0.0789,-0.0773,-0.0822,-0.0787,-0.0774,-0.0764,-0.0726,-0.0727,-0.0728,-0.0746,-0.0736,-0.0738,-0.074,-0.0716,-0.0715,-0.0715,0,0,-0.0702,-0.0739,-0.076,-0.077,-0.0794,-0.0816,-0.0833,-0.0802,-0.0808,-0.0724,-0.0786,-0.079,-0.0663,-0.0763,-0.0808,-0.0827,-0.0742,-0.0758,-0.0772,-0.0762,-0.0763,-0.0765,-0.0747,-0.0747,-0.0749,-0.0749,-0.0749,0,-0.0727,-0.0732,-0.0775,-0.0773,-0.0781,-0.083,-0.0832,-0.0868,-0.0808,-0.0825,-0.0658,-0.0666,-0.0669,-0.0879,-0.0838,-0.0832,-0.0779,-0.0759,-0.0763,-0.0764,-0.0766,-0.0747,-0.0747,-0.0749,-0.0749,-0.0749,-0.0749,0,-0.0726,-0.0743,-0.0757,-0.077,-0.0796,-0.08,-0.0823,-0.0807,-0.0722,-0.0708,-0.0717,-0.0699,-0.0714,-0.0709,-0.0748,-0.0836,-0.0779,-0.077,-0.0754,-0.0768,-0.0747,-0.0747,-0.075,-0.075,-0.075,-0.0749,0,0,-0.0734,-0.0753,-0.0759,-0.0763,-0.0777,-0.0797,-0.0833,-0.0893,-0.0947,-0.0773,-0.0805,-0.0831,-0.0787,-0.0847,-0.0922,-0.0906,-0.085,-0.0796,-0.0795,-0.0772,-0.0771,-0.061,-0.0594,-0.0785,-0.0786,-0.0786,-0.0747,0,-0.072,-0.072,-0.0727,-0.0742,-0.0748,-0.0786,-0.0799,-0.0858,-0.0843,-0.0847,-0.0924,-0.091,-0.0878,-0.0835,-0.0849,-0.0873,-0.0847,-0.086,-0.0769,-0.0768,-0.0617,-0.059,-0.0787,-0.0746,-0.0746,-0.0746,-0.0746,0,-0.0704,-0.07,-0.0691,-0.0712,-0.0719,-0.0692,-0.0777,-0.0751,-0.0879,-0.0862,-0.093,-0.096,-0.1066,-0.0916,-0.0954,-0.0926,-0.0832,-0.0799,-0.0796,-0.0651,-0.0606,-0.0736,-0.0746,-0.0746,-0.0746,-0.0746,-0.0746,0,-0.0684,-0.0692,-0.0685,-0.0677,-0.0685,-0.0662,-0.0607,-0.0702,-0.0682,-0.0834,-0.0814,-0.1008,-0.0964,-0.0938,-0.0805,-0.0853,-0.0721,-0.0815,-0.0623,-0.0611,-0.0772,-0.0771,-0.0777,-0.0777,-0.0777,-0.0777,-0.0777,0,-0.0656,-0.0665,-0.0643,-0.0616,-0.0577,-0.053,-0.0447,-0.0535,-0.053,-0.0522,-0.0733,-0.0771,-0.0912,-0.0868,-0.0805,-0.0648,-0.0708,-0.062,-0.0584,-0.0771,-0.077,-0.077,-0.077,-0.0776,-0.0776,-0.0776,-0.0776,0,-0.0639,-0.0642,-0.0618,-0.0574,-0.0548,-0.0446,-0.0245,-0.0197,-0.022,-0.0223,-0.023,-0.0519,-0.0526,-0.0609,-0.0586,-0.0582,-0.0489,-0.0391,-0.0526,-0.05,-0.0434,-0.0434,-0.0348,-0.0342,-0.0336,-0.0332,-0.0328,0,-0.0631,-0.0607,-0.0558,-0.05,-0.0443,-0.0244,-0.0113,-0.0042,0.0021,-0.003,-0.005,-0.014,-0.0314,-0.0203,-0.0309,-0.028,-0.0244,-0.0218,-0.0433,-0.0412,-0.0388,-0.0396,-0.0404,-0.032,-0.0319,-0.0317,-0.0316,0,-0.0584,-0.0561,-0.054,-0.0427,-0.0292,-0.0128,0.0088,0.0138,0.0243,0.019,0.0144,0.0055,-0.0009,-0.0153,-0.006,-0.0033,-0.0293,-0.0168,-0.0185,-0.0389,-0.0378,-0.036,-0.0374,-0.0298,-0.03,-0.0302,-0.0303,0,-0.0552,-0.0519,-0.0473,-0.0357,-0.0244,-0.0087,0.0054,0.0213,0.0313,0.0265,0.0297,0.0153,0.0055,-0.0004,0.011,0.0114,-0.0015,-0.0062,-0.0089,-0.011,-0.0057,-0.001,0.0228,0,0,0,0,0,-0.0507,-0.0463,-0.0384,-0.0271,-0.0159,-0.0061,0.0092,0.0241,0.0337,0.0345,0.0341,0.031,0.0247,0.0167,0.0185,0.0093,-0.0055,0.0111,-0.0133,-0.0198,-0.0219,-0.0183,0,0,0,0,0,0,-0.0482,-0.0451,-0.0392,-0.0235,-0.0109,0.0049,0.0146,0.0231,0.0273,0.0326,0.0292,0.0351,0.0273,0.0264,0.0198,0.0187,0.0041,0.0099,0.0101,-0.0186,-0.0205,-0.0222,-0.0192,0,0,0,0,0]},{"header":{"parameterUnit":"m.s-1","parameterCategory":2,"la1":30.2991,"la2":30.254,"lo1":-89.0895,"lo2":-89.0444,"dy":0.0017,"dx":0.0017,"nx":28,"ny":28,"refTime":"2025-06-07T03:00:00:Z","depth":"4","parameterNumber":3,"parameterNumberName":"V-component_of_CURRENTS"},"data":[0,0,0,0,0,0,0,0,0,0,0,0,0,0,0,0,0,0,0,0,0,0,0,0,0,0,0,0,0,0,0,0,0,0,0,0,0,0,0,0,0,0,0,0,0,0,0,0,0,0,0,0,0,0,0,0,0,0,-0.0048,-0.0049,0,-0.0118,-0.0119,-0.012,-0.0133,-0.0132,-0.0131,-0.0131,-0.0235,-0.0238,-0.0242,0,0,0,0,0,0,0,0,0,0,0,0,0,-0.0046,-0.0045,-0.0048,-0.0049,-0.005,-0.0118,-0.0119,-0.012,-0.0133,-0.0132,-0.0131,-0.013,-0.0234,-0.0238,-0.0242,0,0,0,0,0,0,0,0,0,0,0,0,0,-0.0075,-0.0045,-0.0048,-0.0063,-0.0065,-0.0117,-0.0119,-0.012,-0.0133,-0.0132,-0.0131,-0.013,-0.0233,-0.0238,-0.0243,-0.0294,0,0,-0.0258,-0.026,0,0,0,0,0,0,0,0,-0.0073,-0.0075,-0.006,-0.0062,-0.0065,-0.0114,-0.0156,-0.018,-0.0133,-0.0108,-0.0131,-0.0129,-0.0198,-0.0206,-0.0222,-0.0299,-0.0304,-0.0259,-0.0262,-0.0264,-0.0265,0,0,0,0,0,0,0,-0.0071,-0.0073,-0.0077,-0.0061,-0.0064,-0.0108,-0.011,-0.0161,-0.016,-0.0111,-0.0111,-0.0118,-0.0199,-0.0217,-0.0225,-0.0305,-0.0259,-0.0263,-0.0266,-0.0268,-0.0395,-0.0396,0,0,0,0,0,0,-0.0055,-0.0071,-0.0075,-0.0079,-0.0065,-0.0108,-0.0111,-0.01,-0.0158,-0.0166,-0.0118,-0.0118,-0.0209,-0.0219,-0.0229,-0.0291,-0.0264,-0.0269,-0.0272,-0.0395,-0.0395,-0.0396,0,0,0,0,0,0,-0.0054,-0.0054,-0.0072,-0.0077,-0.0082,-0.0108,-0.0098,-0.0102,-0.008,-0.0164,-0.0171,-0.0086,-0.0209,-0.0222,-0.0287,-0.0295,-0.0271,-0.0276,-0.0395,-0.0395,-0.0396,-0.0417,0,0,0,0,0,0,-0.0054,-0.0053,-0.0039,-0.0075,-0.0081,-0.0108,-0.0099,-0.0104,-0.0087,-0.0086,-0.0139,-0.015,-0.0209,-0.0279,-0.0292,-0.0302,-0.028,-0.0394,-0.0395,-0.0396,-0.0416,-0.0419,-0.0421,0,0,0,0,0,-0.0053,-0.0054,-0.0037,-0.0038,-0.006,-0.0109,-0.0117,-0.0134,-0.0086,-0.0101,-0.0141,-0.0146,-0.029,-0.0286,-0.03,-0.0311,-0.0394,-0.0395,-0.0395,-0.0415,-0.0418,-0.0421,0,0,0,0,0,0,-0.0038,-0.0057,-0.0039,-0.0039,-0.0066,-0.011,-0.0109,-0.0103,-0.014,-0.0115,-0.0174,-0.0192,-0.0248,-0.027,-0.0262,-0.0344,-0.0333,-0.0337,-0.0343,-0.0346,-0.0348,-0.0325,-0.0284,0,0,0,0,0,-0.0026,-0.0024,-0.0054,-0.0044,-0.0045,-0.0056,-0.0066,-0.0074,-0.0111,-0.0119,-0.0151,-0.0191,-0.0268,-0.0297,-0.0356,-0.0409,-0.0359,-0.0415,-0.0417,-0.0419,-0.0408,-0.0351,-0.0346,-0.0398,-0.0398,-0.0398,0,0,-0.0022,-0.002,-0.0023,-0.0041,-0.0039,-0.0076,-0.0058,-0.0059,-0.01,-0.0129,-0.0162,-0.0199,-0.0283,-0.0359,-0.0381,-0.0376,-0.0372,-0.042,-0.0421,-0.0409,-0.0351,-0.0346,-0.0341,-0.0399,-0.0399,-0.0398,0,0,-0.0017,0.0008,0.0005,-0.0017,-0.0018,-0.0052,-0.0037,-0.0055,-0.0069,-0.0111,-0.0156,-0.019,-0.0267,-0.0352,-0.0404,-0.0441,-0.0386,-0.0443,-0.0443,-0.0389,-0.0383,-0.0378,-0.0281,-0.0267,-0.0444,-0.0444,-0.0444,0,-0.0011,-0.0003,-0.0008,-0.0016,-0.0036,-0.0032,-0.0057,-0.0095,-0.0136,-0.016,-0.0114,-0.0217,-0.0268,-0.0405,-0.0423,-0.0446,-0.0383,-0.0436,-0.0389,-0.0384,-0.0378,-0.0279,-0.0264,-0.0445,-0.0445,-0.0445,-0.0445,0,-0.0027,-0.0011,-0.0004,-0.0022,-0.0062,-0.0068,-0.0128,-0.0148,-0.0124,-0.0157,-0.0212,-0.0266,-0.0325,-0.0348,-0.0403,-0.0425,-0.0381,-0.0397,-0.038,-0.0374,-0.027,-0.0253,-0.0447,-0.0447,-0.0446,-0.0446,0,0,-0.004,-0.0023,-0.0017,-0.0024,-0.0055,-0.0101,-0.016,-0.024,-0.0265,-0.0265,-0.0294,-0.0393,-0.036,-0.0414,-0.0466,-0.0423,-0.0323,-0.0386,-0.0382,-0.0281,-0.0151,-0.028,-0.0272,-0.0323,-0.0321,-0.0319,-0.0085,0,-0.0042,-0.0053,-0.006,-0.0102,-0.0118,-0.0154,-0.0207,-0.0279,-0.0312,-0.0342,-0.0372,-0.0404,-0.0415,-0.041,-0.0385,-0.036,-0.0283,-0.0382,-0.0179,-0.0172,-0.0282,-0.0261,-0.0313,-0.0072,-0.0068,-0.0065,-0.0063,0,-0.0063,-0.0066,-0.0082,-0.012,-0.0129,-0.0153,-0.0244,-0.0282,-0.0353,-0.0367,-0.0399,-0.042,-0.0431,-0.0382,-0.0285,-0.0341,-0.0232,-0.017,-0.016,-0.0262,-0.0271,-0.0087,-0.0032,-0.0034,-0.0037,-0.0039,-0.0041,0,-0.0088,-0.01,-0.0108,-0.0121,-0.016,-0.0167,-0.0175,-0.0252,-0.0277,-0.0343,-0.0348,-0.039,-0.0349,-0.0258,-0.0174,-0.0197,-0.0004,-0.0025,-0.0024,-0.0028,0.0031,0.0023,0.0118,0.0118,0.0117,0.0117,0.0116,0,-0.01,-0.0122,-0.0093,-0.0099,-0.0119,-0.0121,-0.0127,-0.0187,-0.0191,-0.0224,-0.0304,-0.0348,-0.0299,-0.0237,-0.0141,-0.0046,0.0033,-0.0008,0.0011,0.002,0.0007,0.0046,0.0035,0.0125,0.0123,0.0122,0.012,0,-0.0136,-0.0103,-0.013,-0.0124,-0.0114,-0.0108,-0.0063,-0.0068,-0.0077,-0.0117,-0.012,-0.0238,-0.0214,-0.0167,-0.0018,-0.0,0.0106,0.0143,0.0185,0.0201,0.0057,0.0042,0.0167,0.0164,0.0161,0.0159,0.0158,0,-0.0162,-0.0154,-0.0147,-0.0127,-0.01,-0.0057,-0.0018,-0.0008,-0.0008,-0.0078,-0.0097,-0.0129,-0.0213,-0.0069,-0.0059,0.0091,0.0094,0.0196,0.0079,0.0049,0.0057,0.0046,0.0034,0.0154,0.0153,0.0152,0.0152,0,-0.0227,-0.0194,-0.0212,-0.015,-0.0098,-0.0069,0.0004,0.0019,0.0031,-0.001,-0.0066,-0.0111,-0.0124,-0.012,-0.0013,0.0084,0.0128,0.0171,0.0176,0.0067,0.0036,0.0043,0.0034,0.0143,0.0145,0.0145,0.0146,0,-0.0269,-0.029,-0.0252,-0.0195,-0.0136,-0.0058,-0.0032,0.0018,0.0041,0.0001,-0.0025,-0.0091,-0.0119,-0.0121,-0.0031,0.0023,0.0015,0.0072,0.0082,0.0091,-0.0069,-0.0129,-0.004,0,0,0,0,0,-0.0306,-0.0301,-0.0286,-0.021,-0.0137,-0.0072,-0.0023,0.0016,0.0035,0.0017,0.0019,-0.0012,-0.0038,-0.0086,-0.0045,-0.0112,0.0011,-0.0069,0.0082,0.0097,0.0107,-0.0091,0,0,0,0,0,0,-0.032,-0.0332,-0.0311,-0.0204,-0.0114,-0.0034,0.0023,0.0028,0.0042,0.0037,0.0033,0.0008,-0.0006,-0.0031,-0.0037,-0.0042,0.0059,-0.0084,-0.0083,0.0091,0.01,0.0108,-0.0092,0,0,0,0,0]}]]